RH
80 73 79 82 84 90 89 79 86 70 91 73 97 97 87 94 86 87 93 96 92 94 94 95 93 94 94 94 97 98 98 99 98 97 98 100 100 100 100 100 98 98 99 100
92 80 81 88 75 76 80 80 89 100 94 78 82 84 83 88 96 92 95 100 91 92 93 95 95 95 96 96 91 94 99 94 96 98 98 100 98 100 100 100 100 100 100 100
89 91 90 80 70 85 92 96 84 96 71 96 96 89 85 93 96 100 100 100 93 94 96 95 95 95 96 95 94 96 94 96 97 97 99 100 98 100 99 100 100 100 100 100
97 89 96 63 92 86 85 91 87 96 95 97 90 81 80 96 99 92 91 95 89 93 95 94 95 95 96 96 96 96 95 95 96 97 99 100 99 99 99 100 100 99 99 100
96 98 74 63 97 91 86 76 85 81 94 90 79 72 99 91 80 84 82 88 93 95 95 94 95 95 95 95 94 94 95 95 94 96 97 98 100 99 100 98 100 100 99 100
97 97 98 65 95 90 77 92 92 85 93 97 77 91 90 78 81 76 78 85 95 93 86 89 92 95 96 95 95 95 95 95 95 96 97 97 99 100 99 100 98 100 100 100
92 94 88 85 94 79 90 70 94 79 85 94 94 80 82 92 80 79 80 84 99 88 86 86 87 93 96 95 95 95 96 96 96 96 96 97 97 100 100 99 98 100 100 100
91 96 90 84 93 83 74 90 76 88 86 91 90 92 89 86 83 84 80 83 92 88 84 80 82 84 94 96 97 95 97 96 96 96 97 96 96 97 99 99 100 100 100 100
85 79 91 79 76 76 76 89 95 86 88 91 92 90 93 91 85 86 84 92 96 94 87 79 78 82 89 96 96 96 95 94 94 95 95 96 96 97 98 100 98 100 99 100
80 94 88 89 79 73 78 81 86 84 89 87 90 88 91 88 86 86 89 98 94 92 89 81 76 77 86 93 95 94 95 94 95 93 96 94 96 96 97 98 99 100 100 100
94 93 96 96 87 88 83 82 85 88 86 82 88 87 90 91 89 87 100 96 91 94 90 84 76 74 79 88 91 90 92 95 95 93 96 95 95 96 97 97 98 99 100 99
87 79 79 89 99 87 84 88 85 82 79 79 86 91 95 92 88 96 100 97 91 88 87 80 75 74 76 85 84 92 92 95 94 95 94 94 94 95 97 97 97 98 99 100
93 90 80 98 99 94 90 86 83 79 81 86 92 98 97 93 91 100 95 91 91 88 86 82 75 74 80 84 81 86 97 93 96 94 89 94 93 95 95 98 97 98 98 100
94 92 100 100 98 98 92 88 87 83 89 95 96 94 98 97 93 92 92 91 91 88 85 83 79 79 91 86 81 87 93 91 95 95 96 92 92 95 96 96 96 97 98 99
83 81 81 97 100 98 91 81 82 87 90 93 99 97 98 96 92 88 91 93 88 88 86 83 84 83 94 87 87 88 93 86 99 96 98 96 93 94 96 96 96 97 97 98
90 84 86 90 92 90 87 85 85 87 91 92 94 97 97 99 98 92 92 98 91 82 87 93 89 95 93 92 92 93 90 88 97 96 97 95 93 94 96 96 95 96 97 97
96 92 91 88 85 82 81 81 82 81 83 89 92 97 96 96 92 91 84 88 94 88 98 100 94 94 85 100 97 100 93 84 88 94 96 96 94 92 95 96 95 95 96 97
75 71 73 71 68 66 67 71 74 74 72 76 91 96 99 98 97 91 90 87 90 87 100 98 88 99 96 100 93 100 91 82 89 94 94 96 96 94 95 96 96 95 96 97
68 68 69 69 68 69 73 76 76 73 71 77 94 97 100 100 100 97 100 95 94 89 97 88 97 88 96 100 99 94 84 88 90 92 94 95 95 96 95 96 96 95 96 96
75 78 82 77 76 82 84 86 79 71 75 96 100 100 100 100 100 100 99 98 97 97 100 100 94 86 99 99 98 82 88 94 94 93 92 91 94 96 95 95 95 95 96 96
82 91 89 85 82 89 94 85 76 70 88 100 100 100 100 100 100 100 99 93 89 99 100 98 78 93 98 100 81 86 94 95 95 94 93 92 91 92 95 94 95 96 95 96
87 90 90 85 84 87 89 80 76 87 100 100 100 100 100 100 100 99 100 100 96 99 100 90 86 92 100 84 88 93 96 96 95 96 94 94 94 95 96 95 95 96 95 95
88 91 92 88 92 89 77 81 97 100 100 100 100 100 100 100 100 98 88 95 100 98 99 84 100 100 100 90 95 96 96 96 94 96 94 94 95 95 95 96 94 95 95 95
86 95 95 94 95 82 82 100 100 100 100 100 100 100 100 100 99 100 100 100 100 100 100 96 100 100 100 96 96 97 99 98 96 96 96 96 95 95 95 96 94 95 95 95
81 87 90 86 84 94 94 98 100 100 100 100 94 90 96 100 100 98 92 99 99 100 96 99 100 100 99 99 98 98 100 100 98 96 97 96 96 97 96 94 95 94 94 95
83 79 83 93 95 94 97 100 100 100 100 93 84 98 100 100 100 96 92 94 97 97 98 100 100 100 100 99 99 99 98 100 99 99 98 98 97 97 98 97 95 95 95 95
81 97 98 97 96 91 93 100 100 94 95 82 90 98 92 89 85 82 95 89 94 96 98 100 100 100 100 99 99 99 99 99 99 99 99 98 98 98 97 96 96 96 95 95
Wind_Speed
15 14 8 14 18 11 14 10 10 10 8 8 4 4 8 9 13 16 19 23 28 31 32 33 33 33 32 28 23 20 13 9 7 4 12 18 34 40 53 49 50 50 52 55
7 12 16 18 21 15 18 10 9 2 10 7 4 3 6 8 11 13 18 21 26 27 29 30 30 32 31 30 28 24 19 17 12 8 9 8 30 40 47 53 51 53 53 54
6 2 5 11 17 12 5 4 8 7 9 3 1 2 5 6 13 15 17 20 26 25 28 28 29 30 29 27 25 22 19 13 11 10 10 3 19 36 40 50 51 50 49 50
3 2 2 6 2 3 8 5 9 3 4 5 4 7 7 4 13 19 21 22 24 24 26 26 27 27 26 24 23 23 20 16 13 11 8 3 9 26 38 44 52 52 51 49
3 4 7 7 5 6 7 8 9 10 4 4 3 7 10 7 14 19 22 21 20 21 23 23 24 25 26 26 27 25 22 19 15 14 10 6 1 12 29 34 48 49 48 50
4 4 6 6 3 6 4 6 6 9 5 4 4 1 3 13 16 19 19 18 18 19 20 21 22 23 23 24 23 22 22 18 15 13 10 8 4 6 16 33 37 46 48 46
10 8 8 4 7 8 4 6 10 12 10 8 4 5 11 13 15 16 18 19 17 17 19 20 21 22 22 23 24 23 20 16 14 12 10 8 6 4 13 21 32 39 42 43
6 5 12 15 7 9 4 10 13 11 9 6 7 9 10 13 15 16 18 17 16 18 20 20 20 23 22 23 24 23 20 19 17 15 12 9 8 6 5 18 24 33 35 37
10 5 1 25 2 11 11 15 12 10 7 6 7 9 11 13 15 15 17 16 15 18 19 18 19 22 24 26 26 25 23 22 21 18 15 11 8 6 3 9 17 25 32 36
1 3 4 15 10 12 10 12 11 9 7 7 9 11 13 14 15 16 13 14 17 18 18 19 19 20 21 25 26 25 24 21 19 18 18 11 8 6 4 3 12 23 31 33
2 3 6 11 13 16 14 12 10 8 8 7 10 12 14 14 15 15 12 15 17 17 18 19 19 20 20 22 25 24 22 20 19 18 17 13 10 8 6 3 7 16 24 29
5 9 5 6 20 19 17 13 9 8 8 9 10 12 13 15 15 13 16 17 16 15 16 18 18 18 20 22 23 23 22 20 19 19 17 15 14 9 3 5 6 8 16 26
4 11 7 18 19 17 14 10 7 8 10 11 10 11 13 16 14 15 16 16 15 16 17 18 18 17 17 19 20 19 20 19 19 19 19 17 14 14 12 2 2 5 8 19
12 14 10 13 7 12 10 8 7 8 9 10 12 12 13 14 14 14 15 16 16 16 16 16 16 16 16 18 19 18 19 18 18 19 19 15 14 15 13 10 6 2 2 10
6 5 4 11 9 8 7 7 7 8 9 9 10 11 11 13 14 14 14 16 16 16 14 14 13 12 15 17 19 18 19 20 20 16 15 13 12 13 12 9 6 5 1 4
7 5 6 6 6 5 5 6 7 7 8 9 10 10 11 12 13 13 14 15 17 16 13 12 12 13 17 17 18 17 18 20 18 15 14 12 10 11 12 9 7 4 2 0
9 6 7 6 4 4 5 7 8 9 10 10 11 11 12 12 13 13 13 12 12 13 11 12 14 14 16 15 17 17 19 22 17 14 12 10 11 13 13 11 7 5 3 1
5 3 3 4 5 7 8 9 11 12 12 13 12 12 12 11 12 13 14 14 13 10 5 11 13 19 11 17 14 18 21 19 15 14 12 10 11 10 10 9 7 6 5 3
4 2 4 6 8 9 10 10 11 13 12 13 13 11 11 11 11 12 13 13 13 11 9 13 14 15 10 17 15 20 21 18 15 13 11 11 10 8 8 6 6 5 4 3
3 6 7 8 9 9 10 11 13 13 11 11 10 10 9 9 10 12 12 12 11 11 16 16 17 9 17 15 20 23 19 15 12 11 11 10 10 9 8 6 5 5 3 1
7 9 9 8 8 10 11 12 14 12 9 8 7 7 8 9 9 10 11 12 9 6 16 14 16 7 20 16 24 19 15 12 11 11 10 10 9 9 7 6 4 4 3 2
9 8 7 9 9 9 9 11 12 9 6 5 4 6 7 8 8 8 8 10 12 10 15 20 10 14 20 24 18 14 12 11 10 9 8 8 7 7 5 3 2 2 1 2
8 8 8 8 9 9 9 8 7 6 3 2 3 4 6 6 7 10 10 7 12 14 19 18 13 16 20 18 14 13 11 9 9 8 7 7 6 5 3 2 1 1 2 3
7 7 8 8 8 9 7 3 4 4 5 3 4 6 6 8 7 5 9 11 10 15 16 13 15 15 17 14 12 11 9 7 8 7 6 5 5 3 2 0 1 1 2 4
5 6 6 8 7 4 5 4 3 2 2 3 6 9 8 9 10 9 10 11 13 14 14 13 13 13 13 13 11 10 10 7 7 7 6 4 3 1 0 1 2 3 3 4
3 3 2 2 3 3 3 3 2 3 3 6 8 5 6 6 7 8 10 11 12 12 13 13 12 11 11 11 12 9 8 8 5 4 5 4 2 1 1 2 2 4 5 6
3 4 5 5 4 3 3 3 4 3 4 6 7 8 6 6 7 9 9 10 10 10 11 11 10 10 10 10 10 9 8 6 5 5 4 3 2 2 2 2 5 6 6 8
Wind_Direction
248 261 241 259 264 198 206 227 217 269 211 254 217 257 295 324 339 334 337 343 347 349 353 355 355 358 355 352 0 7 357 332 348 281 235 222 198 202 218 217 220 221 220 220
266 252 253 262 259 245 228 229 257 154 271 179 196 273 314 315 338 338 339 338 346 350 352 351 354 354 353 354 360 359 351 358 342 317 291 225 205 201 213 218 219 219 219 219
259 1 314 277 249 198 185 212 166 199 235 174 206 272 313 324 344 341 340 338 342 349 349 348 351 353 351 355 356 355 3 351 338 322 302 207 204 203 203 218 217 215 218 219
265 28 249 246 243 228 211 220 218 287 196 181 211 311 295 16 349 341 341 340 341 346 348 350 349 349 350 356 355 0 4 352 336 334 320 340 209 201 208 216 219 218 217 219
240 199 299 275 193 172 169 264 196 215 184 180 333 326 174 7 340 334 333 335 337 341 345 347 346 350 352 357 0 0 356 356 344 337 335 337 217 205 203 207 217 213 217 218
146 218 239 237 237 170 120 281 176 170 165 152 81 1 245 331 330 326 328 333 338 337 343 347 346 348 354 0 359 356 357 351 347 342 344 332 333 213 202 204 208 216 213 216
218 236 269 177 163 146 108 245 153 168 165 166 181 213 306 319 325 324 326 331 335 334 345 347 344 346 353 356 355 355 351 355 354 352 348 338 324 279 228 204 212 215 218 218
210 226 259 145 120 176 179 125 152 160 180 205 257 284 303 317 326 326 325 330 335 337 341 345 348 344 347 352 354 354 351 359 359 1 358 355 337 301 242 220 214 208 215 220
196 213 272 166 90 171 153 154 160 176 193 230 269 291 306 319 324 324 326 324 332 335 335 341 345 348 345 349 350 351 0 1 1 4 4 353 343 326 281 223 226 212 215 219
160 169 176 180 149 167 171 168 172 193 213 249 274 289 302 313 319 326 330 324 327 330 334 337 343 348 345 347 348 353 358 1 1 4 3 356 344 346 327 221 211 215 211 215
241 141 124 193 196 177 169 174 183 200 229 254 275 287 296 306 316 326 326 321 322 325 326 332 339 347 343 345 347 351 355 359 1 4 359 359 355 346 336 268 228 210 214 214
220 166 150 162 177 172 171 178 200 225 244 257 271 280 291 304 312 324 321 320 317 318 322 328 335 341 342 344 346 348 351 352 358 356 355 3 354 342 291 294 248 225 216 219
154 163 147 155 165 174 185 192 219 250 261 269 268 277 290 299 308 312 316 317 319 322 328 329 331 337 340 339 343 347 345 347 350 348 352 353 356 351 341 234 231 230 219 218
128 134 119 162 177 187 202 218 231 256 259 267 274 280 287 292 299 310 319 320 320 324 326 326 327 333 337 339 341 343 343 347 350 347 341 344 349 341 339 338 341 282 211 211
149 202 164 179 184 197 219 240 251 251 255 258 266 277 282 289 297 312 323 320 318 322 322 319 326 339 337 343 342 340 340 344 344 336 335 342 343 341 335 329 341 345 295 220
162 147 155 174 183 211 241 259 267 267 266 268 273 274 279 286 296 309 319 320 318 324 331 328 333 343 339 339 343 339 333 340 338 332 332 342 346 339 338 342 334 340 3 307
162 166 185 199 218 250 268 277 282 283 281 279 278 281 284 287 291 302 310 317 320 322 327 331 330 329 338 345 335 336 333 334 336 328 329 345 339 338 336 339 333 323 311 203
194 185 199 235 258 275 281 281 284 287 288 284 279 277 282 286 296 307 317 321 320 321 304 326 324 334 335 338 335 332 328 331 328 328 332 335 336 333 335 339 340 323 289 221
192 248 290 298 295 289 286 286 287 289 292 284 279 274 277 285 295 304 313 316 319 330 355 340 336 335 338 337 341 324 333 332 333 328 322 322 327 329 327 338 3 353 299 230
260 290 299 298 290 282 283 292 295 302 300 284 279 277 279 285 293 299 307 311 319 325 351 341 331 337 350 337 333 332 329 329 326 319 320 326 327 328 324 322 314 302 307 268
277 285 289 285 282 280 286 293 297 303 293 280 278 280 290 297 304 305 310 312 325 341 339 329 339 338 359 334 323 324 324 325 325 324 325 331 328 325 322 319 309 301 286 242
273 276 277 281 285 281 284 293 295 295 294 285 278 295 291 300 303 303 310 314 325 342 336 329 342 347 336 318 322 326 324 326 330 322 322 323 313 305 310 316 319 314 265 224
266 266 264 280 280 286 298 295 282 272 268 300 319 303 303 310 318 320 322 333 339 353 319 323 336 337 323 323 330 332 324 328 335 323 315 311 312 314 317 320 312 243 189 197
263 262 272 277 277 295 295 253 276 265 253 261 297 308 300 300 309 304 309 318 330 336 329 339 342 338 325 334 334 337 332 320 333 326 317 311 308 301 300 326 169 220 204 191
259 265 270 279 285 280 269 270 224 127 201 280 313 309 295 280 301 318 317 320 324 331 338 340 341 341 342 344 341 344 347 346 327 331 330 328 317 322 341 168 175 183 190 196
266 250 209 276 286 254 223 240 261 241 279 294 314 307 297 283 287 302 312 316 322 330 337 341 345 349 352 357 0 353 351 357 346 2 356 356 10 43 93 127 146 167 175 175
218 224 275 265 253 226 180 306 283 256 257 300 329 318 316 304 304 310 310 313 321 327 337 344 348 358 4 7 8 16 19 17 17 34 31 47 75 121 151 151 143 144 149 155